Location: NCO
(38.4404°N, 77.1340°W)
Time: 12:06:14
(UTC-04:00)

OTV 4 - Visible Passes

Search period start: 24 March 2017 00:00
Search period end: 03 April 2017 00:00
Orbit: 322 x 354 km, 38.0° (Epoch: 14 January)

Date Brightness Start Highest point End Pass type
(mag) Time Alt. Az. Time Alt. Az. Time Alt. Az.
25 Mar 2.8 06:32:20 10° SSW 06:34:10 16° SSE 06:35:58 10° ESE visible
27 Mar 2.4 05:39:36 16° S 05:40:19 17° SSE 05:42:17 10° ESE visible
28 Mar 1.3 05:59:40 19° SW 06:01:13 35° SSE 06:03:48 10° E visible
29 Mar 3.6 04:48:25 11° ESE 04:48:25 11° ESE 04:48:35 10° ESE visible
29 Mar 0.4 06:19:40 12° WSW 06:22:13 63° S 06:24:59 10° E visible
30 Mar 2.1 05:08:23 27° ESE 05:08:23 27° ESE 05:10:02 10° E visible
31 Mar 0.2 05:28:18 66° S 05:28:25 67° S 05:31:12 10° E visible
01 Apr 0.2 05:48:14 29° W 05:49:29 84° S 05:52:18 10° E visible
02 Apr 3.5 04:36:56 14° E 04:36:56 14° E 04:37:24 10° E visible
02 Apr 0.2 06:08:11 13° W 06:10:35 74° S 06:13:23 10° ESE visible
